Starlink 3591

operational
NORAD ID: 51870 Int'l Des: 2022-022 Owner: SPXS Country: US Constellation: starlink
LEOCIRCULAR

Über Starlink 3591

Beschreibung wird geladen...

Live-Position

3D-Globus wird geladen...

Nächste Überflüge

Höhenverlauf

Altitude vs Time

uPlot chart will show altitude changes over time

Zweizeiliger Elementsatz

1 51870U 22022U 26036.69773072 .00001909 00000-0 13798-3 0 9997
2 51870 53.2185 152.7415 0001336 99.1655 260.9489 15.08843465218339
Epoch: 5. Feb. 2026 • Age: 12 hours

Aktueller Status

Höhe 557.9 km
Geschwindigkeit 7.58 km/s
Subsatellitenpunkt -50.23°S, 177.47°W
Startdatum 3. März 2022
Alter 3.9 years
Typ internet

Technische Details

Klassifizierung Payload
Masse 297.00 kg
Trockenmasse 275.00 kg
Gesamtmasse 297.00 kg
Länge 0.20 m
Durchmesser 2.80 m
Spannweite 9.00 m
Form Box + pan
Hersteller SPXS
Bus-Typ Starlink
Phasenstatus In Orbit
Besitzer/Staat SPXS/US

Große Konstellationen

Loading constellations...